Location: Domont
(49.0278°N, 2.3264°E)
Time: 11:40:00
(UTC+00:00)

DX 1 - Pass Details

Date: 05 July 2022
Orbit: 617 x 630 km, 98.4° (Epoch: 13 August)

Event Time Altitude Azimuth Distance (km) Brightness Sun altitude
Rises 22:11:47 0° 5° (N) 2,933 ? -14.6°
Reaches altitude 10° 22:14:14 10° 353° (N) 2,019 ? -14.8°
Maximum altitude 22:17:54 27° 297° (WNW) 1,222 ? -15.0°
Drops below altitude 10° 22:21:33 10° 239° (WSW) 2,000 ? -15.3°
Sets 22:23:59 0° 228° (SW) 2,900 ? -15.4°
